NORTHEAST SUFFOLK  -  Winter Weather Advisory Winter Weather Advisory        NORTHERN NASSAU  -  Winter Weather Advisory Winter Weather Advisory        NORTHWEST SUFFOLK  -  Winter Weather Advisory Winter Weather Advisory        SOUTHEAST SUFFOLK  -  Winter Weather Advisory Winter Weather Advisory        SOUTHERN NASSAU  -  Winter Weather Advisory Winter Weather Advisory        SOUTHWEST SUFFOLK  -  Winter Weather Advisory Winter Weather Advisory      

Active alerts

Northern Nassau
  Details for Northern Nassau Winter Weather Advisory
Southern Nassau
  Details for Southern Nassau Winter Weather Advisory
Northwest Suffolk
  Details for Northwest Suffolk Winter Weather Advisory
Southwest Suffolk
  Details for Southwest Suffolk Winter Weather Advisory
Northeast Suffolk
  Details for Northeast Suffolk Winter Weather Advisory
Southeast Suffolk
  Details for Southeast Suffolk Winter Weather Advisory


WXM80 ListenWXM80 Stop

You find our weather info also at:

UK Metoffice

WeatherCloud

Weather Underground

Northeastern Weather Network

AWEKAS

Citizen Weather Observer Program (CWOP)

HAMweather, WeatherForYou, PWS Weather


Weather Underground History page Text

Daily Summary for February 10, 2017 Units:  Metric    English   Both
« Previous Day
Next Day »
Daily Weekly Monthly Yearly Custom
  High: Low: Average:
Temperature: 0.8 °C -7.6 °C -3.2 °C
Dew Point: -5.1 °C -12.1 °C -7.9 °C
Humidity: 81 % 58 % 70 %
Wind Speed: 24.1 km/h 0 km/h 8.7 km/h
Wind Gust: 37 km/h - -
Wind:- - West
Pressure: 1022.2 hPa 1016.5 hPa -
Precipitation: 0 mm    
Historical Graphs
 
 
Tabular Data for February 10, 2017
Time Temperature Dew Point Pressure Wind Wind Speed Wind Gust Humidity Rainfall Rate (Hourly)
00:03 -7.5 °C -12.1 °C 1016.5 hPa West 8.5 km/h 18.5 km/h 70 % 0 mm
00:08 -7.5 °C -12.1 °C 1016.8 hPa WNW 9.7 km/h 22.5 km/h 70 % 0 mm
00:13 -7.5 °C -11.9 °C 1016.8 hPa NW 11.3 km/h 20.9 km/h 71 % 0 mm
00:18 -7.6 °C -12.1 °C 1016.8 hPa NW 14.5 km/h 27.4 km/h 70 % 0 mm
00:23 -7.5 °C -11.8 °C 1016.8 hPa WNW 11.3 km/h 25.7 km/h 71 % 0 mm
00:28 -7.5 °C -11.7 °C 1016.8 hPa WNW 9.7 km/h 20.9 km/h 72 % 0 mm
00:33 -7.5 °C -11.7 °C 1016.8 hPa West 9.7 km/h 29 km/h 72 % 0 mm
00:38 -7.5 °C -11.5 °C 1016.8 hPa West 12.9 km/h 29 km/h 73 % 0 mm
00:43 -7.5 °C -11.5 °C 1016.8 hPa WSW 5.6 km/h 27.8 km/h 73 % 0 mm
00:48 -7.5 °C -11.5 °C 1016.8 hPa NW 12.9 km/h 25.9 km/h 73 % 0 mm
00:54 -7.4 °C -11.4 °C 1017.2 hPa West 7.9 km/h 17.7 km/h 73 % 0 mm
00:59 -7.4 °C -11.4 °C 1017.2 hPa WNW 12.9 km/h 25.9 km/h 73 % 0 mm
01:04 -7.4 °C -11.2 °C 1017.2 hPa WNW 14.6 km/h 18.5 km/h 74 % 0 mm
01:09 -7.3 °C -11 °C 1017.2 hPa WNW 15.4 km/h 22.5 km/h 75 % 0 mm
01:14 -7.3 °C -11.1 °C 1017.2 hPa WNW 12.6 km/h 20.9 km/h 74 % 0 mm
01:19 -7.2 °C -11.1 °C 1017.2 hPa WSW 17.5 km/h 27.8 km/h 74 % 0 mm
01:24 -7.2 °C -10.9 °C 1017.5 hPa North 11.6 km/h 14.8 km/h 75 % 0 mm
01:29 -7.2 °C -10.9 °C 1017.2 hPa WNW 3.4 km/h 11.1 km/h 75 % 0 mm
01:34 -7.2 °C -10.7 °C 1017.2 hPa NW 13.5 km/h 18.5 km/h 76 % 0 mm
01:39 -7.2 °C -10.9 °C 1017.2 hPa West 10.1 km/h 18.5 km/h 75 % 0 mm
01:44 -7.3 °C -10.6 °C 1017.5 hPa SW 12.6 km/h 20.9 km/h 77 % 0 mm
01:49 -7.2 °C -10.6 °C 1017.5 hPa WSW 11.6 km/h 24.1 km/h 77 % 0 mm
01:54 -7.2 °C -10.3 °C 1017.5 hPa West 15.4 km/h 20.4 km/h 78 % 0 mm
01:59 -7.2 °C -10.3 °C 1017.5 hPa West 10 km/h 20.4 km/h 78 % 0 mm
02:04 -7.2 °C -10.2 °C 1017.5 hPa WNW 11.6 km/h 20.9 km/h 79 % 0 mm
02:09 -7.1 °C -10.1 °C 1017.5 hPa West 12.2 km/h 24.1 km/h 79 % 0 mm
02:14 -7.1 °C -10 °C 1017.5 hPa WSW 13.7 km/h 22.2 km/h 80 % 0 mm
02:19 -7.1 °C -10.1 °C 1017.5 hPa West 11.7 km/h 18.5 km/h 79 % 0 mm
02:24 -7.1 °C -10.2 °C 1017.5 hPa SW 9.3 km/h 14.8 km/h 78 % 0 mm
02:29 -7.1 °C -10.3 °C 1017.5 hPa South 12.2 km/h 19.3 km/h 78 % 0 mm
02:34 -7.1 °C -10.4 °C 1017.8 hPa SW 9.2 km/h 18.5 km/h 77 % 0 mm
02:39 -7.1 °C -10.6 °C 1017.5 hPa WNW 6.4 km/h 17.7 km/h 76 % 0 mm
02:44 -7.1 °C -10.6 °C 1017.8 hPa SW 10.8 km/h 16.1 km/h 76 % 0 mm
02:49 -7.1 °C -10.6 °C 1017.8 hPa WSW 17.2 km/h 25.9 km/h 76 % 0 mm
02:54 -7 °C -10.7 °C 1017.8 hPa NW 11.6 km/h 22.2 km/h 75 % 0 mm
02:59 -7 °C -10.7 °C 1017.8 hPa West 1.6 km/h 1.9 km/h 75 % 0 mm
03:05 -6.9 °C -10.8 °C 1017.8 hPa West 7.1 km/h 9.7 km/h 74 % 0 mm
03:10 -6.9 °C -10.6 °C 1017.8 hPa West 2.4 km/h 7.4 km/h 75 % 0 mm
03:15 -6.9 °C -10.4 °C 1017.8 hPa SW 6.9 km/h 16.1 km/h 76 % 0 mm
03:20 -7 °C -10.5 °C 1018.2 hPa West 3.2 km/h 5.6 km/h 76 % 0 mm
03:25 -7 °C -10.5 °C 1018.2 hPa West 8.5 km/h 19.3 km/h 76 % 0 mm
03:30 -7 °C -10.5 °C 1018.2 hPa West 6.6 km/h 9.3 km/h 76 % 0 mm
03:35 -6.9 °C -10.4 °C 1018.2 hPa NW 8.2 km/h 11.3 km/h 76 % 0 mm
03:40 -6.9 °C -10.4 °C 1018.5 hPa WNW 5.8 km/h 13 km/h 76 % 0 mm
03:45 -6.9 °C -10.4 °C 1018.5 hPa SW 17.9 km/h 30.6 km/h 76 % 0 mm
03:50 -6.8 °C -10.5 °C 1018.5 hPa West 12.1 km/h 20.4 km/h 75 % 0 mm
03:55 -6.8 °C -10.7 °C 1018.8 hPa West 15 km/h 20.9 km/h 74 % 0 mm
04:00 -6.8 °C -10.7 °C 1018.8 hPa SW 11.4 km/h 24.1 km/h 74 % 0 mm
04:05 -6.7 °C -10.6 °C 1018.8 hPa WNW 10.8 km/h 18.5 km/h 74 % 0 mm
04:10 -6.7 °C -10.6 °C 1018.8 hPa West 13.5 km/h 25.9 km/h 74 % 0 mm
04:15 -6.7 °C -10.6 °C 1018.8 hPa WNW 13 km/h 18.5 km/h 74 % 0 mm
04:20 -6.6 °C -10.5 °C 1018.8 hPa WSW 8 km/h 14.8 km/h 74 % 0 mm
04:25 -6.6 °C -10.4 °C 1019.2 hPa WSW 8 km/h 8 km/h 74 % 0 mm
04:30 -6.6 °C -10.6 °C 1019.2 hPa WNW 17.9 km/h 22.2 km/h 73 % 0 mm
04:35 -6.5 °C -10.4 °C 1019.2 hPa WNW 12.2 km/h 22.2 km/h 74 % 0 mm
04:40 -6.5 °C -10.6 °C 1019.5 hPa NW 11.4 km/h 18.5 km/h 73 % 0 mm
04:45 -6.4 °C -10.3 °C 1019.5 hPa West 5.8 km/h 14.8 km/h 74 % 0 mm
04:50 -6.5 °C -10.2 °C 1019.5 hPa WSW 14.5 km/h 22.2 km/h 75 % 0 mm
04:55 -6.4 °C -10.5 °C 1019.5 hPa West 3.2 km/h 13 km/h 73 % 0 mm
04:56 -6.5 °C -10.6 °C 1019.5 hPa West 6 km/h 14.8 km/h 73 % 0 mm
05:01 -6.5 °C -10.4 °C 1019.5 hPa West 15.8 km/h 22.2 km/h 74 % 0 mm
05:06 -6.5 °C -10.4 °C 1019.5 hPa WSW 10.8 km/h 16.7 km/h 74 % 0 mm
05:11 -6.5 °C -10.4 °C 1019.5 hPa West 10.5 km/h 18.5 km/h 74 % 0 mm
05:17 -6.4 °C -10.3 °C 1019.9 hPa West 11.4 km/h 22.2 km/h 74 % 0 mm
05:22 -6.4 °C -10.3 °C 1019.9 hPa SW 12.6 km/h 22.2 km/h 74 % 0 mm
05:27 -6.3 °C -10.2 °C 1019.9 hPa West 11.7 km/h 18.5 km/h 74 % 0 mm
05:32 -6.3 °C -10.2 °C 1019.9 hPa WNW 9 km/h 25.9 km/h 74 % 0 mm
05:37 -6.3 °C -10.3 °C 1019.9 hPa WNW 10 km/h 22.2 km/h 73 % 0 mm
05:42 -6.2 °C -10.3 °C 1020.2 hPa WSW 11.3 km/h 24.1 km/h 73 % 0 mm
05:47 -6.2 °C -10.2 °C 1020.2 hPa West 12.1 km/h 18.5 km/h 73 % 0 mm
05:52 -6.1 °C -10.2 °C 1020.5 hPa WSW 13 km/h 25.7 km/h 73 % 0 mm
05:57 -6.1 °C -10.3 °C 1020.5 hPa WSW 10.5 km/h 16.1 km/h 72 % 0 mm
06:02 -6.1 °C -10.3 °C 1020.5 hPa WSW 10.3 km/h 22.2 km/h 72 % 0 mm
06:07 -6.1 °C -10.3 °C 1020.5 hPa West 24.1 km/h 24.1 km/h 72 % 0 mm
06:12 -6 °C -10.1 °C 1020.5 hPa West 23.8 km/h 37 km/h 73 % 0 mm
06:17 -6 °C -10.1 °C 1020.9 hPa WNW 16.7 km/h 18.5 km/h 73 % 0 mm
06:22 -6 °C -9.9 °C 1020.9 hPa WSW 7.7 km/h 11.3 km/h 74 % 0 mm
06:27 -5.9 °C -10 °C 1020.9 hPa WSW 12.2 km/h 29 km/h 73 % 0 mm
06:32 -5.9 °C -10.2 °C 1020.9 hPa WSW 12.1 km/h 18.5 km/h 72 % 0 mm
06:37 -5.9 °C -10 °C 1020.9 hPa WSW 7.7 km/h 16.7 km/h 73 % 0 mm
06:42 -5.9 °C -10.1 °C 1020.9 hPa SW 15.6 km/h 20.4 km/h 72 % 0 mm
06:47 -5.9 °C -9.9 °C 1021.2 hPa West 11.7 km/h 29.6 km/h 73 % 0 mm
06:52 -5.9 °C -9.9 °C 1021.2 hPa West 12.4 km/h 20.4 km/h 73 % 0 mm
06:57 -5.8 °C -10.1 °C 1021.2 hPa West 8.4 km/h 24.1 km/h 72 % 0 mm
07:02 -5.8 °C -9.9 °C 1021.2 hPa WNW 11.3 km/h 22.2 km/h 73 % 0 mm
07:07 -5.8 °C -9.8 °C 1021.2 hPa West 6.8 km/h 18.5 km/h 73 % 0 mm
07:12 -5.8 °C -9.8 °C 1021.2 hPa WSW 12.2 km/h 19.3 km/h 73 % 0 mm
07:17 -5.7 °C -9.9 °C 1021.2 hPa WSW 19.3 km/h 29.6 km/h 72 % 0 mm
07:23 -5.7 °C -9.9 °C 1021.2 hPa WSW 12.2 km/h 18.5 km/h 72 % 0 mm
07:28 -5.6 °C -9.7 °C 1021.6 hPa West 11.4 km/h 24.1 km/h 73 % 0 mm
07:33 -5.6 °C -9.7 °C 1021.6 hPa West 4.5 km/h 16.1 km/h 73 % 0 mm
07:38 -5.6 °C -9.8 °C 1021.2 hPa WNW 11.7 km/h 22.2 km/h 72 % 0 mm
07:43 -5.5 °C -9.4 °C 1021.2 hPa NW 15.8 km/h 29.6 km/h 74 % 0 mm
07:48 -5.4 °C -9.5 °C 1021.2 hPa West 19 km/h 29.6 km/h 73 % 0 mm
07:50 -5.4 °C -9.5 °C 1021.2 hPa SW 11.7 km/h 20.4 km/h 73 % 0 mm
07:55 -5.4 °C -9.4 °C 1021.2 hPa WNW 13 km/h 20.4 km/h 73 % 0 mm
08:00 -5.3 °C -9.6 °C 1021.2 hPa West 9 km/h 16.7 km/h 72 % 0 mm
08:05 -5.3 °C -9.6 °C 1021.6 hPa SW 10.9 km/h 22.2 km/h 72 % 0 mm
08:10 -5.2 °C -9.4 °C 1021.2 hPa SW 17.4 km/h 20.4 km/h 72 % 0 mm
08:15 -5 °C -9.3 °C 1021.9 hPa WNW 8.4 km/h 18.5 km/h 72 % 0 mm
08:20 -4.8 °C -9.1 °C 1021.9 hPa West 6.1 km/h 18.5 km/h 72 % 0 mm
08:25 -4.7 °C -9.1 °C 1021.9 hPa WNW 7.4 km/h 18.5 km/h 71 % 0 mm
08:30 -4.6 °C -9 °C 1021.9 hPa WNW 18.5 km/h 25.9 km/h 71 % 0 mm
08:36 -4.4 °C -9.3 °C 1021.9 hPa WSW 15 km/h 24.1 km/h 69 % 0 mm
08:41 -4.3 °C -9.1 °C 1021.9 hPa NW 9 km/h 24.1 km/h 69 % 0 mm
08:46 -4.1 °C -8.9 °C 1021.9 hPa West 11.1 km/h 27.8 km/h 69 % 0 mm
08:51 -3.9 °C -8.6 °C 1021.9 hPa WNW 13.5 km/h 27.8 km/h 70 % 0 mm
08:56 -3.8 °C -8.4 °C 1021.9 hPa NW 14.5 km/h 24.1 km/h 70 % 0 mm
09:01 -3.6 °C -8.1 °C 1021.9 hPa WSW 13.4 km/h 18.5 km/h 71 % 0 mm
09:06 -3.3 °C -8.3 °C 1021.6 hPa NW 15.6 km/h 25.9 km/h 68 % 0 mm
09:11 -3.1 °C -8 °C 1021.6 hPa WSW 16.3 km/h 31.5 km/h 69 % 0 mm
09:16 -3 °C -8.4 °C 1021.6 hPa West 8.2 km/h 16.7 km/h 66 % 0 mm
09:21 -2.8 °C -7.9 °C 1021.6 hPa West 8.2 km/h 25.9 km/h 68 % 0 mm
09:26 -2.7 °C -7.8 °C 1021.9 hPa WNW 9.3 km/h 16.7 km/h 68 % 0 mm
09:31 -2.7 °C -8.2 °C 1021.6 hPa WSW 8 km/h 18.5 km/h 66 % 0 mm
09:36 -2.7 °C -8.2 °C 1021.9 hPa WNW 21.1 km/h 33.3 km/h 66 % 0 mm
09:41 -2.7 °C -7.9 °C 1021.9 hPa WSW 8.2 km/h 18.5 km/h 67 % 0 mm
09:46 -2.5 °C -8 °C 1021.9 hPa WNW 11.7 km/h 31.5 km/h 66 % 0 mm
09:51 -2.2 °C -7.7 °C 1021.6 hPa SW 12.4 km/h 29 km/h 66 % 0 mm
09:56 -1.9 °C -7.4 °C 1021.9 hPa NNW 6 km/h 24.1 km/h 66 % 0 mm
09:58 -1.9 °C -7.4 °C 1021.9 hPa WNW 6.1 km/h 11.1 km/h 66 % 0 mm
10:03 -1.7 °C -7.4 °C 1021.9 hPa WNW 10.6 km/h 24.1 km/h 65 % 0 mm
10:08 -1.6 °C -7.1 °C 1021.9 hPa West 13.4 km/h 20.4 km/h 66 % 0 mm
10:13 -1.5 °C -7.4 °C 1021.9 hPa West 12.4 km/h 25.9 km/h 64 % 0 mm
10:18 -1.5 °C -7.8 °C 1021.9 hPa SW 13 km/h 29.6 km/h 62 % 0.25 mm
10:23 -1.4 °C -7.3 °C 1021.9 hPa WSW 10.6 km/h 18.5 km/h 64 % 0.51 mm
10:28 -1.2 °C -6.7 °C 1021.9 hPa WSW 12.6 km/h 16.7 km/h 66 % 0.51 mm
10:33 -0.9 °C -6.7 °C 1021.9 hPa West 11.3 km/h 18.5 km/h 65 % 0.76 mm
10:38 -0.8 °C -7.4 °C 1021.9 hPa NW 13.7 km/h 20.4 km/h 61 % 0.76 mm
10:43 -0.6 °C -6.7 °C 1021.9 hPa WSW 10 km/h 18.5 km/h 63 % 1.02 mm
10:48 -0.4 °C -7.3 °C 1021.9 hPa NW 9.7 km/h 24.1 km/h 60 % 1.27 mm
10:53 -0.4 °C -7.2 °C 1021.9 hPa NW 14.2 km/h 18.5 km/h 60 % 1.27 mm
10:58 -0.3 °C -7.2 °C 1021.9 hPa WNW 11.4 km/h 25.9 km/h 60 % 1.52 mm
11:03 -0.2 °C -7.2 °C 1021.9 hPa SW 12.9 km/h 27.8 km/h 59 % 1.52 mm
11:08 -0.2 °C -6.8 °C 1021.9 hPa WSW 11.3 km/h 22.2 km/h 61 % 1.78 mm
11:13 -0.2 °C -6.8 °C 1022.2 hPa West 13.5 km/h 22.5 km/h 61 % 1.78 mm
11:18 -0.2 °C -7 °C 1021.9 hPa WNW 4.8 km/h 24.1 km/h 60 % 0 mm
11:23 -0.3 °C -7.3 °C 1022.2 hPa West 12.9 km/h 32.2 km/h 59 % 0 mm
11:28 -0.2 °C -6.8 °C 1022.2 hPa West 14.5 km/h 25.7 km/h 61 % 0 mm
11:33 -0.1 °C -5.8 °C 1022.2 hPa NW 13.2 km/h 29.6 km/h 65 % 1.27 mm
11:38 -0.1 °C -7.1 °C 1022.2 hPa WNW 12.9 km/h 32.2 km/h 59 % 0 mm
11:43 -0.1 °C -6.9 °C 1022.2 hPa WNW 14.5 km/h 32.2 km/h 60 % 0 mm
11:48 -0.3 °C -6.9 °C 1022.2 hPa WNW 14.5 km/h 33.8 km/h 61 % 0 mm
11:53 -0.4 °C -7.2 °C 1022.2 hPa NW 13.7 km/h 18.5 km/h 60 % 0.76 mm
11:58 -0.5 °C -7.1 °C 1022.2 hPa West 12.6 km/h 22.5 km/h 61 % 0.51 mm
12:01 -0.6 °C -6.6 °C 1022.2 hPa WNW 10.6 km/h 18.5 km/h 64 % 0.51 mm
12:06 -0.7 °C -7.3 °C 1022.2 hPa WSW 13.4 km/h 22.5 km/h 61 % 0.51 mm
12:09 -0.7 °C -7.1 °C 1022.2 hPa NW 10.6 km/h 18.5 km/h 62 % 0.25 mm
12:11 -0.7 °C -6.8 °C 1022.2 hPa WNW 10.8 km/h 20.4 km/h 63 % 0.25 mm
12:16 -0.6 °C -6.8 °C 1022.2 hPa West 11.6 km/h 24.1 km/h 63 % 0.25 mm
12:17 -0.6 °C -6.9 °C 1022.2 hPa WNW 7.6 km/h 24.1 km/h 62 % 0.25 mm
12:22 -0.3 °C -6.7 °C 1022.2 hPa WNW 14.3 km/h 22.2 km/h 62 % 0.25 mm
12:23 -0.3 °C -7.2 °C 1021.9 hPa WSW 11.1 km/h 22.2 km/h 60 % 0 mm
12:28 -0.2 °C -6.4 °C 1021.9 hPa West 6.9 km/h 13 km/h 63 % 0 mm
12:33 0.1 °C -5.9 °C 1022.2 hPa West 11.4 km/h 14.5 km/h 64 % 0 mm
12:35 0.1 °C -6.1 °C 1022.2 hPa West 10.3 km/h 20.4 km/h 63 % 0 mm
12:40 0.2 °C -6.5 °C 1022.2 hPa WSW 13.2 km/h 20.9 km/h 61 % 0 mm
12:45 0.1 °C -5.9 °C 1021.9 hPa NW 8.9 km/h 17.7 km/h 64 % 0 mm
12:50 -0.1 °C -6.1 °C 1021.9 hPa West 7.9 km/h 19.3 km/h 64 % 0 mm
12:55 -0.2 °C -6.2 °C 1021.9 hPa West 12.4 km/h 18.5 km/h 64 % 0 mm
13:00 -0.2 °C -6.6 °C 1021.6 hPa West 10.1 km/h 18.5 km/h 62 % 0 mm
13:05 -0.1 °C -6.3 °C 1021.6 hPa West 9.5 km/h 18.5 km/h 63 % 0 mm
13:10 0 °C -6.2 °C 1021.6 hPa WNW 8.2 km/h 17.7 km/h 63 % 0 mm
13:15 0.2 °C -6.2 °C 1021.6 hPa WNW 9.3 km/h 16.7 km/h 62 % 0 mm
13:20 0.4 °C -5.8 °C 1021.6 hPa WNW 10.5 km/h 16.7 km/h 63 % 0 mm
13:25 0.6 °C -6.6 °C 1021.6 hPa NW 12.4 km/h 18.5 km/h 59 % 0 mm
13:30 0.7 °C -5.9 °C 1021.6 hPa NW 12.2 km/h 27.8 km/h 61 % 0 mm
13:35 0.8 °C -5.9 °C 1021.6 hPa NW 15.8 km/h 20.4 km/h 61 % 0 mm
13:40 0.8 °C -5.9 °C 1021.6 hPa WNW 9.7 km/h 18.5 km/h 61 % 0 mm
13:45 0.7 °C -6.2 °C 1021.2 hPa West 10.5 km/h 31.5 km/h 60 % 0 mm
13:51 0.7 °C -6.7 °C 1021.2 hPa NW 13.5 km/h 24.1 km/h 58 % 0 mm
13:56 0.7 °C -6.2 °C 1021.2 hPa WNW 14.2 km/h 25.9 km/h 60 % 0 mm
14:01 0.6 °C -6.1 °C 1021.2 hPa WNW 8.7 km/h 22.2 km/h 61 % 0 mm
14:06 0.6 °C -6.8 °C 1021.2 hPa WSW 11.4 km/h 20.4 km/h 58 % 0 mm
14:11 0.6 °C -6.6 °C 1021.6 hPa NNW 10.6 km/h 18.5 km/h 59 % 0 mm
14:16 0.6 °C -6.1 °C 1021.2 hPa NW 10 km/h 25.9 km/h 61 % 0 mm
14:21 0.6 °C -6.3 °C 1021.2 hPa NW 12.4 km/h 16.1 km/h 60 % 0 mm
14:26 0.6 °C -6.1 °C 1021.2 hPa NW 6.3 km/h 12.9 km/h 61 % 0 mm
14:31 0.6 °C -5.5 °C 1021.2 hPa West 10.3 km/h 16.1 km/h 64 % 0 mm
14:32 0.6 °C -5.9 °C 1021.2 hPa NNW 7.7 km/h 16.7 km/h 62 % 0 mm
14:37 0.5 °C -5.3 °C 1021.2 hPa WNW 9.7 km/h 18.5 km/h 65 % 0 mm
14:42 0.4 °C -5.8 °C 1021.2 hPa WNW 9.7 km/h 18.5 km/h 63 % 0 mm
14:47 0.2 °C -5.8 °C 1021.2 hPa West 5.3 km/h 18.5 km/h 64 % 0 mm
14:52 0.1 °C -6.1 °C 1021.6 hPa NW 7.1 km/h 20.9 km/h 63 % 0 mm
14:57 -0.1 °C -6.5 °C 1021.2 hPa WNW 12.9 km/h 20.4 km/h 62 % 0 mm
15:03 -0.2 °C -6.8 °C 1021.6 hPa West 10.3 km/h 22.2 km/h 61 % 0 mm
15:08 -0.3 °C -6.7 °C 1021.6 hPa WSW 10.9 km/h 20.9 km/h 62 % 0 mm
15:13 -0.4 °C -6.8 °C 1021.6 hPa WNW 12.2 km/h 16.7 km/h 62 % 0 mm
15:14 -0.4 °C -6.6 °C 1021.6 hPa West 11.7 km/h 19.3 km/h 63 % 0 mm
15:19 -0.5 °C -6.3 °C 1021.6 hPa WNW 10.5 km/h 11.1 km/h 65 % 0 mm
15:24 -0.6 °C -6.7 °C 1021.6 hPa WNW 4.3 km/h 8 km/h 63 % 0 mm
15:29 -0.6 °C -6.8 °C 1021.6 hPa WNW 8.4 km/h 13 km/h 63 % 0 mm
15:34 -0.6 °C -6.6 °C 1021.6 hPa West 8.9 km/h 12.9 km/h 64 % 0 mm
15:39 -0.7 °C -6.7 °C 1021.6 hPa WNW 5 km/h 8 km/h 64 % 0 mm
15:44 -0.7 °C -6.4 °C 1021.6 hPa NNW 6.4 km/h 11.1 km/h 65 % 0 mm
15:49 -0.7 °C -6.4 °C 1021.6 hPa NW 4.7 km/h 5.6 km/h 65 % 0 mm
15:54 -0.7 °C -6.2 °C 1021.6 hPa WNW 6.9 km/h 11.1 km/h 66 % 0 mm
15:59 -0.7 °C -6.7 °C 1021.2 hPa WNW 4.8 km/h 13 km/h 64 % 0 mm
16:04 -0.7 °C -6.5 °C 1021.6 hPa WNW 6.3 km/h 13 km/h 65 % 0 mm
16:09 -0.8 °C -6.3 °C 1021.2 hPa WNW 5.6 km/h 11.1 km/h 66 % 0 mm
16:14 -0.8 °C -6.3 °C 1021.2 hPa West 2.3 km/h 5.6 km/h 66 % 0 mm
16:19 -0.8 °C -5.8 °C 1020.9 hPa WNW 1.8 km/h 7.4 km/h 69 % 0 mm
16:25 -0.8 °C -5.8 °C 1021.2 hPa WNW 3.7 km/h 7.4 km/h 69 % 0 mm
16:30 -0.8 °C -6.2 °C 1021.2 hPa WNW 6.3 km/h 7.4 km/h 67 % 0 mm
16:35 -0.8 °C -6.2 °C 1021.2 hPa West 5.8 km/h 7.4 km/h 67 % 0 mm
16:40 -0.9 °C -6.3 °C 1021.2 hPa West 6.6 km/h 11.3 km/h 67 % 0 mm
16:45 -0.9 °C -6.7 °C 1021.2 hPa West 2.3 km/h 7.4 km/h 65 % 0 mm
16:50 -0.9 °C -6.4 °C 1021.2 hPa WNW 3.5 km/h 8 km/h 66 % 0 mm
16:55 -0.9 °C -6.1 °C 1021.6 hPa WNW 0.5 km/h 5.6 km/h 68 % 0 mm
17:00 -0.9 °C -6.5 °C 1021.6 hPa WSW 1.9 km/h 7.4 km/h 66 % 0 mm
17:05 -1.1 °C -6.8 °C 1021.6 hPa West 3.5 km/h 5.6 km/h 65 % 0 mm
17:10 -1.1 °C -7 °C 1021.6 hPa WSW 6.6 km/h 11.1 km/h 64 % 0 mm
17:15 -1.2 °C -6.5 °C 1021.6 hPa SW 1.8 km/h 5.6 km/h 67 % 0 mm
17:20 -1.2 °C -6.8 °C 1021.6 hPa SW 2.4 km/h 6.4 km/h 66 % 0 mm
17:25 -1.3 °C -7.1 °C 1021.6 hPa WSW 5.1 km/h 6.4 km/h 65 % 0 mm
17:30 -1.4 °C -7.1 °C 1021.6 hPa WSW 4.7 km/h 6.4 km/h 65 % 0 mm
17:35 -1.4 °C -7.2 °C 1021.6 hPa WSW 5.1 km/h 7.4 km/h 65 % 0 mm
17:40 -1.5 °C -7.1 °C 1021.6 hPa SW 6.1 km/h 9.3 km/h 66 % 0 mm
17:45 -1.6 °C -7.1 °C 1021.6 hPa WSW 3.4 km/h 5.6 km/h 66 % 0 mm
17:50 -1.7 °C -7.2 °C 1021.6 hPa SW 2.3 km/h 5.6 km/h 66 % 0 mm
17:56 -1.7 °C -7.1 °C 1021.6 hPa WSW 2.4 km/h 5.6 km/h 67 % 0 mm
18:01 -1.8 °C -7.2 °C 1021.6 hPa WSW 4.8 km/h 7.4 km/h 67 % 0 mm
18:06 -1.9 °C -7.3 °C 1021.6 hPa SW 3.2 km/h 4.8 km/h 67 % 0 mm
18:11 -2 °C -7.1 °C 1021.6 hPa SW 6.3 km/h 9.3 km/h 68 % 0 mm
18:16 -2.1 °C -7.2 °C 1021.6 hPa SW 1.8 km/h 5.6 km/h 68 % 0 mm
18:21 -2.1 °C -7.1 °C 1021.6 hPa SW 2.6 km/h 7.4 km/h 69 % 0 mm
18:26 -2.2 °C -7.3 °C 1021.6 hPa SW 0.5 km/h 3.7 km/h 68 % 0 mm
18:31 -2.2 °C -6.9 °C 1021.2 hPa SW 5.5 km/h 7.4 km/h 70 % 0 mm
18:36 -2.2 °C -6.9 °C 1021.2 hPa SW 0.8 km/h 5.6 km/h 70 % 0 mm
18:41 -2.3 °C -7 °C 1021.2 hPa SW 1.3 km/h 5.6 km/h 70 % 0 mm
18:46 -2.3 °C -7 °C 1021.2 hPa SW 1.6 km/h 5.6 km/h 70 % 0 mm
18:51 -2.3 °C -6.9 °C 1021.2 hPa SW 2.7 km/h 6.4 km/h 71 % 0 mm
18:56 -2.4 °C -6.9 °C 1020.9 hPa WSW 2.6 km/h 5.6 km/h 71 % 0 mm
19:01 -2.4 °C -6.9 °C 1020.9 hPa SSW 4 km/h 5.6 km/h 71 % 0 mm
19:06 -2.4 °C -6.9 °C 1020.9 hPa SW 5.8 km/h 11.1 km/h 71 % 0 mm
19:11 -2.4 °C -6.9 °C 1021.2 hPa SW 4 km/h 5.6 km/h 71 % 0 mm
19:17 -2.4 °C -6.8 °C 1021.2 hPa SSW 3.4 km/h 9.3 km/h 72 % 0 mm
19:22 -2.4 °C -6.8 °C 1020.9 hPa SW 5 km/h 8 km/h 72 % 0 mm
19:27 -2.4 °C -6.8 °C 1020.5 hPa SW 8.7 km/h 13 km/h 72 % 0 mm
19:32 -2.3 °C -6.5 °C 1020.5 hPa SW 3.4 km/h 5.6 km/h 73 % 0 mm
19:37 -2.3 °C -6.7 °C 1020.5 hPa SW 8 km/h 11.1 km/h 72 % 0 mm
19:42 -2.3 °C -6.4 °C 1020.5 hPa WSW 5.8 km/h 9.7 km/h 73 % 0 mm
19:47 -2.3 °C -6.7 °C 1020.2 hPa WSW 5.3 km/h 11.1 km/h 72 % 0 mm
19:52 -2.3 °C -6.7 °C 1020.2 hPa SSW 3.1 km/h 5.6 km/h 72 % 0 mm
19:57 -2.3 °C -6.4 °C 1020.2 hPa West 4.3 km/h 8 km/h 73 % 0 mm
20:02 -2.2 °C -6.6 °C 1020.5 hPa WSW 6 km/h 7.4 km/h 72 % 0 mm
20:07 -2.2 °C -6.2 °C 1020.9 hPa WSW 7.4 km/h 9.3 km/h 74 % 0 mm
20:12 -2.2 °C -6.4 °C 1020.5 hPa WSW 3.5 km/h 13 km/h 73 % 0 mm
20:17 -2.2 °C -6.4 °C 1020.2 hPa SSW 7.9 km/h 11.1 km/h 73 % 0 mm
20:22 -2.2 °C -6.6 °C 1020.2 hPa WSW 8.2 km/h 11.1 km/h 72 % 0 mm
20:27 -2.2 °C -6.3 °C 1020.5 hPa SW 3.9 km/h 9.3 km/h 73 % 0 mm
20:32 -2.2 °C -6.6 °C 1020.2 hPa SW 4.7 km/h 7.4 km/h 72 % 0 mm
20:37 -2.2 °C -6.6 °C 1020.2 hPa SW 2.1 km/h 7.4 km/h 72 % 0 mm
20:42 -2.2 °C -6.3 °C 1020.2 hPa WSW 1.8 km/h 7.4 km/h 73 % 0 mm
20:47 -2.1 °C -6.3 °C 1020.2 hPa SW 4 km/h 8 km/h 73 % 0 mm
20:52 -2.1 °C -6.3 °C 1020.2 hPa WSW 3.4 km/h 3.7 km/h 73 % 0 mm
20:57 -2.1 °C -6.3 °C 1019.9 hPa SW 5.3 km/h 7.4 km/h 73 % 0 mm
21:02 -2.1 °C -6.3 °C 1019.9 hPa WSW 6.8 km/h 6.8 km/h 73 % 0 mm
21:07 -2.1 °C -6.1 °C 1020.2 hPa SW 4.8 km/h 13 km/h 74 % 0 mm
21:12 -2.1 °C -6.3 °C 1019.9 hPa SW 3.5 km/h 5.6 km/h 73 % 0 mm
21:17 -2.1 °C -6.3 °C 1019.9 hPa SSW 4.7 km/h 11.1 km/h 73 % 0 mm
21:23 -2.1 °C -6.3 °C 1019.9 hPa SW 6.4 km/h 7.4 km/h 73 % 0 mm
21:28 -2.1 °C -6.3 °C 1019.9 hPa WSW 2.4 km/h 5.6 km/h 73 % 0 mm
21:33 -2.1 °C -6.3 °C 1019.9 hPa WSW 2.9 km/h 5.6 km/h 73 % 0 mm
21:38 -2.1 °C -6.1 °C 1019.5 hPa Calm   1.9 km/h 74 % 0 mm
21:43 -2.1 °C -5.9 °C 1019.9 hPa WSW 2.3 km/h 3.7 km/h 75 % 0 mm
21:48 -2.1 °C -5.9 °C 1019.9 hPa SW 3.4 km/h 7.4 km/h 75 % 0 mm
21:53 -2.1 °C -6.1 °C 1019.5 hPa SW 2.7 km/h 5.6 km/h 74 % 0 mm
21:58 -2.1 °C -6.1 °C 1019.5 hPa SW 1 km/h 3.7 km/h 74 % 0 mm
22:03 -2.1 °C -6.1 °C 1019.9 hPa SW 2.1 km/h 5.6 km/h 74 % 0 mm
22:08 -2.1 °C -5.9 °C 1019.9 hPa SW 1.9 km/h 3.7 km/h 75 % 0 mm
22:13 -2.1 °C -6.1 °C 1019.9 hPa Calm     74 % 0 mm
22:18 -2.1 °C -5.9 °C 1019.9 hPa SW 0.5 km/h 1.9 km/h 75 % 0 mm
22:23 -2.1 °C -5.9 °C 1019.9 hPa SW 2.6 km/h 3.7 km/h 75 % 0 mm
22:28 -2.1 °C -6.1 °C 1019.9 hPa SW 0.3 km/h 3.2 km/h 74 % 0 mm
22:33 -2.1 °C -5.9 °C 1020.2 hPa SW 5.8 km/h 7.4 km/h 75 % 0 mm
22:38 -2.1 °C -6.1 °C 1019.9 hPa Calm     74 % 0 mm
22:43 -2.1 °C -6.1 °C 1019.9 hPa WSW 3.2 km/h 14.5 km/h 74 % 0 mm
22:48 -2.1 °C -6.1 °C 1019.9 hPa SW 9.7 km/h 14.5 km/h 74 % 0 mm
22:53 -2.1 °C -5.9 °C 1020.2 hPa SW 11.3 km/h 19.3 km/h 75 % 0 mm
22:58 -2.1 °C -5.8 °C 1019.9 hPa SW 3.2 km/h 7.4 km/h 76 % 0 mm
23:03 -2.1 °C -5.6 °C 1019.9 hPa WSW 7.9 km/h 13 km/h 77 % 0 mm
23:08 -2.2 °C -5.7 °C 1019.9 hPa SW 4.8 km/h 12.9 km/h 77 % 0 mm
23:13 -2.2 °C -5.7 °C 1019.9 hPa WSW 6.6 km/h 11.1 km/h 77 % 0 mm
23:18 -2.2 °C -5.7 °C 1019.9 hPa WSW 4.8 km/h 9.3 km/h 77 % 0 mm
23:23 -2.3 °C -5.6 °C 1019.9 hPa Calm   4.8 km/h 78 % 0 mm
23:28 -2.3 °C -5.6 °C 1019.9 hPa Calm   4.8 km/h 78 % 0 mm
23:33 -2.3 °C -5.4 °C 1019.9 hPa Calm   4.8 km/h 79 % 0 mm
23:38 -2.3 °C -5.4 °C 1019.9 hPa WSW 1.6 km/h 3.2 km/h 79 % 0 mm
23:43 -2.3 °C -5.4 °C 1019.9 hPa Calm     79 % 0 mm
23:48 -2.3 °C -5.3 °C 1019.9 hPa Calm   6.4 km/h 80 % 0 mm
23:53 -2.3 °C -5.3 °C 1019.5 hPa Calm   1.6 km/h 80 % 0 mm
23:58 -2.3 °C -5.1 °C 1019.5 hPa WSW 1.9 km/h 1.9 km/h 81 % 0 mm
Crab Meadow Weather
Compliments of Weather Underground - 3.25 mb

Script developed by  Jim McMurry - jmcmurry@mwt.net Adapted for the template by  Wim van der Kuil - Leuven-Template.eu

Weather Terms: Frost Advisory - Widespread frost during the growing season. Frost generally occurs with fair skies and light winds.